[[{"header":{"parameterUnit":"m.s-1","parameterCategory":1,"la1":30.2991,"la2":30.254,"lo1":-89.0895,"lo2":-89.0444,"dy":0.0017,"dx":0.0017,"nx":28,"ny":28,"refTime":"2024-04-17T03:00:00:Z","depth":0,"parameterNumber":2,"parameterNumberName":"U-component_of_WINDS"},"data":[0,0,0,0,0,0,0,0,0,0,0,0,0,0,0,0,0,0,0,0,0,0,0,0,0,0,0,0,0,0,0,0,0,0,0,0,0,0,0,0,0,0,0,0,0,0,0,0,0,0,0,0,0,0,0,0,0,0,-2.4684,-2.4683,0,-2.4672,-2.4672,-2.4672,-2.4595,-2.4593,-2.4591,-2.4589,-2.458,-2.4582,-2.4583,0,0,0,0,0,0,0,0,0,0,0,0,0,-2.4641,-2.4643,-2.4684,-2.4683,-2.4683,-2.4672,-2.4672,-2.4672,-2.4595,-2.4593,-2.4591,-2.4589,-2.458,-2.4582,-2.4583,0,0,0,0,0,0,0,0,0,0,0,0,0,-2.4648,-2.4643,-2.4684,-2.4644,-2.464,-2.4672,-2.4672,-2.4672,-2.4596,-2.4593,-2.459,-2.4587,-2.4579,-2.4581,-2.4584,-2.4655,0,0,-2.4591,-2.4592,0,0,0,0,0,0,0,0,-2.4648,-2.465,-2.465,-2.4646,-2.4642,-2.4632,-2.4654,-2.4666,-2.4596,-2.4613,-2.4589,-2.4586,-2.46,-2.46,-2.4605,-2.4654,-2.4654,-2.4591,-2.4592,-2.4593,-2.4594,0,0,0,0,0,0,0,-2.4647,-2.465,-2.4679,-2.465,-2.4645,-2.4627,-2.4625,-2.4656,-2.4622,-2.4611,-2.4605,-2.4605,-2.4597,-2.4603,-2.4604,-2.4654,-2.4591,-2.4593,-2.4594,-2.4595,-2.4762,-2.4764,0,0,0,0,0,0,-2.4652,-2.465,-2.468,-2.4679,-2.4638,-2.463,-2.4628,-2.4638,-2.4622,-2.4617,-2.4607,-2.4601,-2.46,-2.4601,-2.4603,-2.4685,-2.4593,-2.4595,-2.4597,-2.4759,-2.4762,-2.4766,0,0,0,0,0,0,-2.4652,-2.4656,-2.468,-2.4663,-2.4665,-2.4634,-2.4646,-2.464,-2.4644,-2.4619,-2.4613,-2.4618,-2.4598,-2.46,-2.4642,-2.4683,-2.4596,-2.4598,-2.4755,-2.476,-2.4764,-2.4849,0,0,0,0,0,0,-2.4651,-2.4656,-2.4682,-2.4664,-2.4666,-2.4719,-2.4649,-2.4641,-2.4648,-2.464,-2.4628,-2.4623,-2.4596,-2.4639,-2.4645,-2.4685,-2.46,-2.4751,-2.4757,-2.4762,-2.4842,-2.4856,-2.4867,0,0,0,0,0,-2.4649,-2.4706,-2.4683,-2.4687,-2.4697,-2.4721,-2.4722,-2.4689,-2.4652,-2.4678,-2.4662,-2.4624,-2.4679,-2.4644,-2.465,-2.4691,-2.4748,-2.4755,-2.4762,-2.4837,-2.4853,-2.4867,0,0,0,0,0,0,-2.473,-2.4703,-2.4677,-2.473,-2.4728,-2.4708,-2.4739,-2.4707,-2.4717,-2.4709,-2.4668,-2.4666,-2.4715,-2.4707,-2.467,-2.476,-2.4707,-2.4715,-2.4762,-2.4777,-2.479,-2.479,-2.4602,0,0,0,0,0,-2.4754,-2.4774,-2.475,-2.4799,-2.48,-2.477,-2.4779,-2.4754,-2.4751,-2.475,-2.4737,-2.4736,-2.4753,-2.4765,-2.4779,-2.4842,-2.4838,-2.4873,-2.4886,-2.4896,-2.4903,-2.4936,-2.4951,-2.4788,-2.4788,-2.4788,0,0,-2.4803,-2.4791,-2.4807,-2.4815,-2.4811,-2.4834,-2.477,-2.4797,-2.4814,-2.4754,-2.4793,-2.4784,-2.478,-2.4833,-2.4856,-2.4829,-2.4948,-2.4905,-2.4914,-2.4915,-2.4945,-2.496,-2.4974,-2.4793,-2.4792,-2.4791,0,0,-2.4904,-2.4898,-2.4937,-2.4935,-2.4929,-2.4909,-2.4919,-2.4904,-2.4895,-2.4934,-2.4889,-2.491,-2.494,-2.4939,-2.4943,-2.5047,-2.5012,-2.5053,-2.5118,-2.515,-2.5163,-2.5174,-2.5211,-2.5224,-2.506,-2.5061,-2.5061,0,-2.4966,-2.4998,-2.4962,-2.4992,-2.4997,-2.4945,-2.4985,-2.4985,-2.4985,-2.499,-2.496,-2.4997,-2.4991,-2.5043,-2.5068,-2.5073,-2.5084,-2.5053,-2.5164,-2.5175,-2.5185,-2.5219,-2.5233,-2.5066,-2.5065,-2.5065,-2.5064,0,-2.5075,-2.5098,-2.5131,-2.5132,-2.5141,-2.5177,-2.5147,-2.5161,-2.5136,-2.512,-2.516,-2.5151,-2.5163,-2.5174,-2.515,-2.5223,-2.5206,-2.5171,-2.5117,-2.5206,-2.5237,-2.525,-2.5073,-2.5071,-2.5069,-2.5068,0,0,-2.5224,-2.5205,-2.5218,-2.5217,-2.5208,-2.5226,-2.526,-2.5271,-2.5284,-2.5287,-2.5314,-2.5342,-2.5309,-2.5314,-2.5289,-2.5318,-2.54,-2.5279,-2.5278,-2.5301,-2.548,-2.5506,-2.5522,-2.5378,-2.538,-2.5382,-2.548,0,-2.532,-2.5375,-2.5345,-2.5404,-2.5426,-2.5377,-2.5407,-2.5405,-2.5392,-2.5409,-2.5394,-2.5414,-2.537,-2.5373,-2.5399,-2.5385,-2.5436,-2.5377,-2.5403,-2.5405,-2.5404,-2.5538,-2.5565,-2.5658,-2.5493,-2.5495,-2.5496,0,-2.5439,-2.5446,-2.5508,-2.5496,-2.5503,-2.553,-2.5538,-2.5555,-2.5553,-2.5542,-2.5548,-2.5517,-2.555,-2.5499,-2.5544,-2.5506,-2.5515,-2.551,-2.5513,-2.5512,-2.5455,-2.5541,-2.5687,-2.57,-2.5515,-2.5514,-2.5512,0,-2.5541,-2.5566,-2.5606,-2.5608,-2.5595,-2.5615,-2.561,-2.5605,-2.5614,-2.5622,-2.5628,-2.564,-2.5646,-2.5657,-2.5631,-2.5596,-2.5681,-2.5627,-2.5672,-2.5673,-2.569,-2.5689,-2.5839,-2.5699,-2.5699,-2.5699,-2.5698,0,-2.5651,-2.569,-2.5652,-2.5676,-2.572,-2.5685,-2.5729,-2.572,-2.5716,-2.5739,-2.5699,-2.5721,-2.5686,-2.5706,-2.5686,-2.5727,-2.573,-2.5722,-2.5716,-2.5725,-2.5726,-2.5729,-2.5722,-2.5702,-2.5702,-2.5701,-2.57,0,-2.577,-2.5746,-2.5787,-2.5771,-2.5768,-2.5801,-2.5788,-2.5811,-2.5796,-2.5825,-2.583,-2.5806,-2.5827,-2.5803,-2.5822,-2.5808,-2.5864,-2.5849,-2.5864,-2.5859,-2.5906,-2.5901,-2.6061,-2.608,-2.593,-2.5932,-2.5933,0,-2.5841,-2.587,-2.5858,-2.587,-2.5868,-2.5888,-2.5897,-2.5865,-2.5876,-2.5877,-2.59,-2.5918,-2.5929,-2.5966,-2.5951,-2.5965,-2.595,-2.6005,-2.5952,-2.596,-2.595,-2.5948,-2.595,-2.6015,-2.6017,-2.6019,-2.602,0,-2.5969,-2.5956,-2.597,-2.598,-2.5992,-2.5999,-2.6003,-2.6016,-2.5983,-2.5998,-2.6018,-2.6028,-2.6047,-2.6065,-2.6076,-2.6073,-2.6041,-2.6037,-2.6048,-2.6057,-2.6064,-2.606,-2.5892,-2.6033,-2.6032,-2.6031,-2.603,-2.6029,-2.6065,-2.6089,-2.6084,-2.6102,-2.6102,-2.6107,-2.6127,-2.6115,-2.6131,-2.6144,-2.6125,-2.6151,-2.615,-2.6161,-2.6161,-2.6182,-2.6158,-2.6175,-2.6178,-2.6183,-2.6189,-2.6062,-2.6184,-2.6184,-2.6183,-2.6183,-2.6182,0,-2.619,-2.6185,-2.6202,-2.6208,-2.6223,-2.6192,-2.6195,-2.6209,-2.6232,-2.6233,-2.6246,-2.6271,-2.6288,-2.6276,-2.6291,-2.631,-2.6296,-2.6315,-2.6312,-2.6312,-2.621,-2.6198,-2.6326,-2.6326,-2.6326,-2.6326,-2.6326,-2.6326,-2.6257,-2.6295,-2.6282,-2.6321,-2.6316,-2.634,-2.6345,-2.635,-2.635,-2.6379,-2.6393,-2.6385,-2.6381,-2.6396,-2.6411,-2.6407,-2.6414,-2.6439,-2.6429,-2.6333,-2.6319,-2.6306,-2.6295,-2.6441,-2.6441,-2.653,-2.6531,-2.6531]},{"header":{"parameterUnit":"m.s-1","parameterCategory":1,"la1":30.2991,"la2":30.254,"lo1":-89.0895,"lo2":-89.0444,"dy":0.0017,"dx":0.0017,"nx":28,"ny":28,"refTime":"2024-04-17T03:00:00:Z","depth":0,"parameterNumber":3,"parameterNumberName":"V-component_of_WINDS"},"data":[0,0,0,0,0,0,0,0,0,0,0,0,0,0,0,0,0,0,0,0,0,0,0,0,0,0,0,0,0,0,0,0,0,0,0,0,0,0,0,0,0,0,0,0,0,0,0,0,0,0,0,0,0,0,0,0,0,0,1.9477,1.9478,0,1.9518,1.9519,1.9519,1.959,1.9592,1.9593,1.9594,1.963,1.963,1.963,0,0,0,0,0,0,0,0,0,0,0,0,0,1.9455,1.9455,1.9477,1.9478,1.9478,1.9518,1.9519,1.952,1.959,1.9592,1.9593,1.9595,1.963,1.963,1.963,0,0,0,0,0,0,0,0,0,0,0,0,0,1.9477,1.9455,1.9477,1.9519,1.9523,1.9518,1.9519,1.952,1.959,1.9592,1.9594,1.9596,1.963,1.963,1.963,1.9586,0,0,1.9628,1.9628,0,0,0,0,0,0,0,0,1.9476,1.9478,1.9512,1.9516,1.952,1.9552,1.9525,1.9542,1.9589,1.9564,1.9594,1.9597,1.9602,1.9604,1.9607,1.9588,1.9589,1.9628,1.9628,1.9628,1.9627,0,0,0,0,0,0,0,1.9474,1.9477,1.9493,1.9512,1.9517,1.9534,1.9539,1.9528,1.9571,1.9566,1.9572,1.9576,1.9605,1.9607,1.9608,1.959,1.9628,1.9628,1.9627,1.9627,1.9539,1.9537,0,0,0,0,0,0,1.9467,1.9475,1.9492,1.9495,1.9503,1.9532,1.9538,1.9539,1.9571,1.9578,1.9574,1.9579,1.9607,1.9609,1.961,1.9563,1.9628,1.9627,1.9627,1.9541,1.9539,1.9537,0,0,0,0,0,0,1.9467,1.9468,1.949,1.9486,1.949,1.9531,1.9531,1.9539,1.9542,1.9577,1.9585,1.9569,1.9609,1.9611,1.9593,1.9565,1.9627,1.9627,1.9544,1.9541,1.9538,1.9467,0,0,0,0,0,0,1.9466,1.9468,1.9452,1.9485,1.949,1.9473,1.9529,1.9538,1.9542,1.9549,1.9575,1.9581,1.9611,1.9593,1.9592,1.9566,1.9626,1.9546,1.9542,1.9539,1.9472,1.9462,1.9454,0,0,0,0,0,1.9465,1.9429,1.9451,1.9453,1.9472,1.9472,1.9474,1.9511,1.9539,1.9524,1.9547,1.958,1.9568,1.959,1.959,1.9563,1.9548,1.9543,1.9539,1.9476,1.9464,1.9454,0,0,0,0,0,0,1.9389,1.9434,1.9459,1.9433,1.9449,1.9484,1.9465,1.9496,1.9502,1.9508,1.9551,1.9556,1.9533,1.9546,1.957,1.9524,1.9564,1.9559,1.9516,1.9505,1.9496,1.9493,1.9626,0,0,0,0,0,1.937,1.9367,1.9406,1.9379,1.9386,1.9424,1.9425,1.9452,1.9469,1.9475,1.9496,1.9509,1.9509,1.9507,1.9509,1.9475,1.9482,1.9456,1.9447,1.9439,1.9434,1.9419,1.9408,1.9521,1.9521,1.9522,0,0,1.9328,1.9353,1.9348,1.9365,1.938,1.9375,1.9429,1.9421,1.9417,1.9473,1.9458,1.9474,1.9492,1.9466,1.9456,1.9477,1.9404,1.9433,1.9426,1.9426,1.9413,1.9402,1.9392,1.9518,1.9519,1.9519,0,0,1.9252,1.927,1.9251,1.9266,1.9289,1.9315,1.931,1.9342,1.9356,1.9342,1.9384,1.938,1.9378,1.9389,1.9395,1.9325,1.9356,1.9324,1.9275,1.926,1.9251,1.9243,1.9219,1.921,1.9319,1.9319,1.9319,0,1.9198,1.9194,1.9237,1.9228,1.9234,1.9287,1.9267,1.9279,1.93,1.9302,1.9326,1.9326,1.9341,1.932,1.9304,1.9306,1.9302,1.9321,1.9249,1.9242,1.9235,1.9213,1.9204,1.9315,1.9316,1.9316,1.9316,0,1.9127,1.9124,1.9105,1.9128,1.9132,1.9117,1.9157,1.9156,1.9183,1.9206,1.9192,1.9213,1.9221,1.9217,1.9242,1.92,1.9212,1.9242,1.9282,1.922,1.92,1.9191,1.931,1.9311,1.9312,1.9313,0,0,1.9003,1.9051,1.9044,1.9056,1.9086,1.9083,1.9071,1.9081,1.908,1.9093,1.9084,1.9082,1.9111,1.9117,1.9144,1.913,1.9076,1.9162,1.9163,1.9146,1.9031,1.9009,1.8999,1.9097,1.9095,1.9094,1.903,0,1.8933,1.8918,1.8957,1.8931,1.8929,1.898,1.897,1.8986,1.9008,1.9009,1.9032,1.9031,1.9068,1.9072,1.9061,1.9084,1.9053,1.909,1.9088,1.9087,1.9083,1.8988,1.8965,1.8903,1.9022,1.9021,1.902,0,1.885,1.8862,1.8837,1.8871,1.8872,1.8862,1.8875,1.8875,1.8895,1.8912,1.8921,1.8954,1.8943,1.8983,1.897,1.8994,1.8995,1.9007,1.9005,1.9007,1.905,1.8987,1.8884,1.8875,1.9008,1.9009,1.901,0,1.8763,1.8773,1.876,1.8768,1.8807,1.8799,1.8815,1.8838,1.8842,1.8853,1.8856,1.8864,1.8869,1.8874,1.8908,1.8934,1.8891,1.8933,1.8904,1.8904,1.8893,1.8893,1.8789,1.8893,1.8893,1.8893,1.8893,0,1.8682,1.8664,1.8722,1.8714,1.8696,1.8741,1.8722,1.8742,1.8762,1.8758,1.8802,1.8797,1.8842,1.8842,1.8868,1.8854,1.8855,1.8868,1.8875,1.8864,1.8863,1.8866,1.8871,1.8891,1.8891,1.8892,1.8892,0,1.8582,1.862,1.8609,1.8648,1.8657,1.8643,1.8676,1.8669,1.8695,1.8689,1.8691,1.873,1.8732,1.8767,1.8776,1.8794,1.8769,1.8783,1.8763,1.8768,1.8737,1.874,1.8632,1.8621,1.8731,1.873,1.8729,0,1.8528,1.8516,1.8555,1.8557,1.8571,1.8573,1.8579,1.8622,1.8626,1.8649,1.864,1.8647,1.8654,1.8655,1.8683,1.8691,1.8706,1.8668,1.8707,1.8698,1.8707,1.8707,1.8707,1.866,1.8658,1.8657,1.8656,0,1.8428,1.8448,1.8456,1.847,1.8476,1.8489,1.8504,1.8502,1.855,1.8552,1.8556,1.8562,1.8573,1.8579,1.8592,1.8606,1.8639,1.8644,1.8638,1.8627,1.8616,1.8622,1.8741,1.8646,1.8647,1.8648,1.8648,1.8649,1.835,1.8343,1.837,1.8378,1.8394,1.8408,1.8405,1.8432,1.8437,1.8451,1.8475,1.8476,1.8498,1.8519,1.8531,1.8532,1.8551,1.8542,1.854,1.8537,1.8532,1.8615,1.8534,1.8534,1.8535,1.8535,1.8535,0,1.8254,1.8275,1.8281,1.8303,1.8308,1.8341,1.836,1.8362,1.8363,1.8382,1.839,1.8395,1.8402,1.8431,1.8441,1.8436,1.8451,1.8437,1.8438,1.8441,1.8513,1.8518,1.8424,1.8424,1.8424,1.8424,1.8424,1.8424,1.8205,1.8195,1.8219,1.8218,1.8239,1.8242,1.825,1.8263,1.8278,1.8284,1.829,1.8311,1.8334,1.8346,1.8353,1.8362,1.8363,1.8344,1.8357,1.8425,1.8435,1.8445,1.845,1.8344,1.8344,1.8285,1.8285,1.8284]}]]